Starlink 11204

operational
NORAD ID: 60931 Int'l Des: 2024-155 Owner: SPXS Country: US Constellation: starlink
LEOCIRCULAR

关于 Starlink 11204

正在加载描述...

实时位置

正在加载3D地球...

即将过境

高度历史

Altitude vs Time

uPlot chart will show altitude changes over time

两行轨道根数

1 60931U 24155H 25259.03972848 -.00001162 00000-0 -47360-5 0 9997
2 60931 53.1592 122.0687 0001044 66.3937 293.7191 15.69708598 60977
Epoch: Sep 16, 2025 • Age: 32 hours

当前状态

高度 378.5 km
速度 7.68 km/s
星下点 -52.39°S, 86.74°W
发射日期 Aug 31, 2024
运行时间 1 years
类型 internet

技术详情

分类 Payload
质量 960.00 kg
干质量 910.00 kg
总质量 960.00 kg
长度 0.30 m
直径 4.10 m
跨度 29.00 m
形状 Box + pan
制造商 SPXS
平台类型 Starlink V2MD
阶段状态 In Orbit
所有者/国家 SPXS/US

大型星座

Loading constellations...